| time (UTC) | temp F | wind direction | speed MPH | gust MPH | rain 1hr in | rain 24hr in | rain mn in | humidity % | barometer mb |
| 20260503221529 | 89 | 314 | 3.0 | 11.0 | 0.00 | 0.00 | 0.00 | 33 | 1009.1 |
| 20260503220022 | 89 | 341 | 4.0 | 9.0 | 0.00 | 0.00 | 0.00 | 31 | 1009.3 |
| 20260503214522 | 88 | 295 | 1.0 | 8.0 | 0.00 | 0.00 | 0.00 | 35 | 1009.5 |
| 20260503213023 | 88 | 289 | 2.0 | 10.0 | 0.00 | 0.00 | 0.00 | 31 | 1009.6 |
| 20260503211516 | 88 | 342 | 5.0 | 8.0 | 0.00 | 0.00 | 0.00 | 32 | 1009.8 |
| 20260503210014 | 87 | 323 | 4.0 | 7.0 | 0.00 | 0.00 | 0.00 | 35 | 1010.0 |
| 20260503204509 | 86 | 257 | 4.0 | 10.0 | 0.00 | 0.00 | 0.00 | 34 | 1010.2 |
| 20260503203025 | 86 | 309 | 4.0 | 6.0 | 0.00 | 0.00 | 0.00 | 35 | 1010.4 |
| 20260503201523 | 84 | 290 | 4.0 | 9.0 | 0.00 | 0.00 | 0.00 | 39 | 1010.6 |
| 20260503200024 | 84 | 26 | 4.0 | 8.0 | 0.00 | 0.00 | 0.00 | 40 | 1010.9 |
| 20260503194523 | 82 | 259 | 6.0 | 9.0 | 0.00 | 0.00 | 0.00 | 42 | 1011.1 |
| 20260503193018 | 82 | 316 | 6.0 | 9.0 | 0.00 | 0.00 | 0.00 | 44 | 1011.2 |
| 20260503191514 | 81 | 322 | 4.0 | 9.0 | 0.00 | 0.00 | 0.00 | 46 | 1011.3 |
| 20260503190019 | 80 | 351 | 2.0 | 6.0 | 0.00 | 0.00 | 0.00 | 49 | 1011.5 |
| 20260503184517 | 78 | 264 | 2.0 | 8.0 | 0.00 | 0.00 | 0.00 | 49 | 1011.6 |
| 20260503183026 | 77 | 333 | 2.0 | 7.0 | 0.00 | 0.00 | 0.00 | 47 | 1011.9 |
| 20260503181524 | 76 | 55 | 3.0 | 8.0 | 0.00 | 0.00 | 0.00 | 51 | 1012.0 |
| 20260503180020 | 75 | 306 | 1.0 | 6.0 | 0.00 | 0.00 | 0.00 | 51 | 1012.1 |
| 20260503174519 | 74 | 348 | 2.0 | 6.0 | 0.00 | 0.00 | 0.00 | 54 | 1012.2 |
| 20260503173015 | 73 | 264 | 3.0 | 6.0 | 0.00 | 0.00 | 0.00 | 56 | 1012.3 |
| 20260503171520 | 72 | 258 | 2.0 | 6.0 | 0.00 | 0.00 | 0.00 | 59 | 1012.4 |
| 20260503081516 | 55 | 158 | 0.0 | 0.0 | 0.00 | 0.01 | 0.00 | 88 | 1013.1 |
| 20260503071524 | 57 | 303 | 0.0 | 2.0 | 0.00 | 0.01 | 0.00 | 85 | 1013.1 |
| 20260503054521 | 61 | 9 | 2.0 | 4.0 | 0.00 | 0.01 | 0.01 | 79 | 1013.0 |
| 20260503053019 | 62 | 15 | 0.0 | 2.0 | 0.00 | 0.01 | 0.01 | 77 | 1013.2 |
| 20260503051521 | 62 | 15 | 2.0 | 2.0 | 0.00 | 0.01 | 0.01 | 76 | 1013.2 |
| 20260503050037 | 62 | 132 | 0.0 | 3.0 | 0.00 | 0.01 | 0.01 | 74 | 1013.3 |
| 20260503044525 | 62 | 59 | 1.0 | 2.0 | 0.00 | 0.01 | 0.01 | 74 | 1013.2 |
| 20260503043027 | 63 | 95 | 1.0 | 2.0 | 0.00 | 0.01 | 0.01 | 73 | 1013.3 |
| 20260503041535 | 64 | 130 | 1.0 | 4.0 | 0.00 | 0.01 | 0.01 | 71 | 1013.4 |
| 20260503040022 | 64 | 115 | 3.0 | 7.0 | 0.00 | 0.01 | 0.01 | 71 | 1013.4 |
| 20260503034520 | 65 | 146 | 3.0 | 7.0 | 0.00 | 0.01 | 0.01 | 70 | 1013.1 |
| 20260503033028 | 65 | 167 | 2.0 | 7.0 | 0.00 | 0.01 | 0.01 | 69 | 1013.0 |
| 20260503031531 | 67 | 157 | 5.0 | 10.0 | 0.00 | 0.01 | 0.01 | 67 | 1012.8 |
| 20260503030033 | 68 | 190 | 3.0 | 13.0 | 0.00 | 0.01 | 0.01 | 64 | 1012.5 |
| 20260503024526 | 70 | 177 | 7.0 | 12.0 | 0.00 | 0.01 | 0.01 | 61 | 1012.5 |
| 20260503023027 | 72 | 169 | 8.0 | 15.0 | 0.00 | 0.01 | 0.01 | 60 | 1012.3 |
| 20260503021525 | 73 | 261 | 1.0 | 2.0 | 0.00 | 0.01 | 0.01 | 57 | 1011.8 |
| 20260503020023 | 73 | 360 | 2.0 | 4.0 | 0.00 | 0.01 | 0.01 | 56 | 1011.7 |
| 20260503014520 | 74 | 338 | 1.0 | 4.0 | 0.00 | 0.01 | 0.01 | 56 | 1011.5 |
| 20260503013018 | 74 | 43 | 2.0 | 3.0 | 0.00 | 0.01 | 0.01 | 55 | 1011.5 |
| 20260503011515 | 74 | 284 | 1.0 | 4.0 | 0.00 | 0.01 | 0.01 | 58 | 1011.5 |
| 20260503010012 | 74 | 322 | 2.0 | 6.0 | 0.00 | 0.01 | 0.01 | 55 | 1011.5 |
| 20260503004510 | 74 | 21 | 1.0 | 4.0 | 0.00 | 0.01 | 0.01 | 55 | 1011.7 |
| 20260503003013 | 73 | 269 | 0.0 | 4.0 | 0.00 | 0.01 | 0.01 | 57 | 1011.7 |
| 20260503001512 | 72 | 321 | 3.0 | 8.0 | 0.00 | 0.01 | 0.01 | 59 | 1011.7 |
| 20260503000022 | 73 | 318 | 4.0 | 8.0 | 0.00 | 0.01 | 0.01 | 56 | 1011.9 |
| 20260502234527 | 72 | 325 | 6.0 | 9.0 | 0.00 | 0.01 | 0.01 | 57 | 1011.9 |
| 20260502233015 | 72 | 313 | 2.0 | 9.0 | 0.00 | 0.01 | 0.01 | 57 | 1012.1 |
| 20260502231517 | 71 | 344 | 3.0 | 8.0 | 0.00 | 0.01 | 0.01 | 60 | 1012.3 |
| 20260502230018 | 70 | 248 | 1.0 | 4.0 | 0.00 | 0.01 | 0.01 | 60 | 1012.6 |
| 20260502224516 | 69 | 26 | 1.0 | 10.0 | 0.00 | 0.01 | 0.01 | 64 | 1012.9 |
| 20260502223018 | 69 | 279 | 1.0 | 6.0 | 0.00 | 0.01 | 0.01 | 62 | 1013.2 |